Flag for U.S.A. Weather past 2 weeks in Fayetteville, North Carolina, U.S.A.

Now
72 °F

Mostly cloudy.


Feels Like: 74 °F
Forecast: 35 / 68 °F
Wind: 12 mph from Southwest

Location: Fayetteville Regional Airport

Current Time: Mar 5, 2015 at 2:09:54 PM

Latest Report: Mar 5, 2015 at 1:53 PM


Visibility: 10 mi

Pressure: 29.83 "Hg

Humidity: 71%

Dew point: 62 °F

Location of FayettevilleLocation

Historic Weather in Fayetteville — Graph

°F

Fayetteville temperature yesterday

Maximum temperature yesterday: 79 °F (at 3:53 PM)
Minimum temperature yesterday: 40 °F (at 12:53 AM)
Average temperature yesterday: 60 °F

Past Weeks' High & Low Weather Summary

 TemperatureHumidityPressure
High79 °F (Mar 4, 3:53 PM)100% (Mar 2, 1:53 AM)30.72 "Hg (Mar 2, 1:53 AM)
Low10 °F (Feb 20, 6:53 AM)22% (Feb 20, 4:53 PM)29.58 "Hg (Feb 26, 3:53 AM)
Average39 °F73%30.20 "Hg
* Reported Feb 18 12:53 PM — Mar 5 12:53 PM, Fayetteville, Weather by CustomWeather, © 2015

Note: Actual official high and low records may vary slightly from our data, if they occured in-between our weather recording intervals... More about our weather records

Advertising

Fayetteville weather history for previous 24 hours

 ConditionsComfort  
Time TempWeatherWind HumidityBarometerVisibility
12:53 PM
Thu, Mar 5
71 °FLight rain. Mostly cloudy.13 mph73%29.87 "Hg10 mi
11:53 AM71 °FCloudy.17 mph73%29.89 "Hg10 mi
10:53 AM70 °FOvercast.17 mph76%29.91 "Hg10 mi
9:53 AM69 °FMostly cloudy.16 mph79%29.90 "Hg10 mi
8:53 AM69 °FBroken clouds.16 mph79%29.90 "Hg10 mi
7:53 AM67 °FMostly cloudy.10 mph81%29.90 "Hg10 mi
6:53 AM65 °FPartly sunny.12 mph87%29.89 "Hg10 mi
5:53 AM65 °FPassing clouds.12 mph85%29.88 "Hg10 mi
4:53 AM66 °FOvercast.12 mph84%29.88 "Hg10 mi
3:53 AM65 °FPassing clouds.10 mph87%29.88 "Hg10 mi
2:53 AM65 °FClear.9 mph87%29.88 "Hg10 mi
1:53 AM65 °FClear.12 mph87%29.89 "Hg10 mi
12:53 AM65 °FClear.8 mph87%29.90 "Hg10 mi
11:53 PM
Wed, Mar 4
66 °FClear.10 mph84%29.90 "Hg10 mi
10:53 PM68 °FClear.13 mph78%29.91 "Hg10 mi
9:53 PM69 °FClear.15 mph76%29.91 "Hg10 mi
8:53 PM68 °FClear.8 mph73%29.90 "Hg10 mi
7:53 PM70 °FClear.10 mph68%29.88 "Hg10 mi
6:53 PM73 °FClear.10 mph62%29.88 "Hg10 mi
5:53 PM75 °FSunny.12 mph58%29.88 "Hg10 mi
4:53 PM78 °FSunny.16 mph52%29.88 "Hg10 mi
3:53 PM79 °FPartly sunny.22 mph50%29.90 "Hg10 mi
2:53 PM77 °FMore clouds than sun.20 mph56%29.91 "Hg10 mi
Weather by CustomWeather, © 2015

See weather overviewHow to use our weather pages